Location: C�an Torras
(41.5052°N, 1.9280°E)
Time: 07:06:12
(UTC+00:00)

Meteor 1-21 Rocket - Visible Passes

Search period start: 11 May 2021 00:00
Search period end: 21 May 2021 00:00
Orbit: 832 x 908 km, 81.2° (Epoch: 10 May)

Date Brightness Start Highest point End Pass type
(mag) Time Alt. Az. Time Alt. Az. Time Alt. Az.
11 May 5.9 03:23:31 10° SSE 03:28:26 32° E 03:33:18 10° NNE visible
12 May 5.8 03:17:18 10° SSE 03:22:16 33° E 03:27:11 10° NNE visible
13 May 5.8 03:11:06 10° SSE 03:16:06 34° E 03:21:03 10° NNE visible
14 May 5.7 03:04:54 10° SSE 03:09:55 35° E 03:14:55 10° NNE visible
15 May 5.6 02:58:42 10° SSE 03:03:46 37° E 03:08:48 10° NNE visible
16 May 5.5 02:52:31 10° SSE 02:57:36 38° E 03:02:39 10° NNE visible
17 May 5.4 02:46:18 10° SSE 02:51:26 39° E 02:56:32 10° NNE visible
18 May 5.3 02:40:07 10° SSE 02:45:16 40° E 02:50:24 10° NNE visible
19 May 5.3 02:33:55 10° SSE 02:39:05 42° E 02:44:16 10° NNE visible
20 May 5.2 02:27:50 11° SSE 02:32:56 43° E 02:38:08 10° NNE visible
